Private Wetterstation Wechselburg
Wetterdaten: Freitag, 12.03.2021
Datum Zeit Temp. +2m Bodentemp. Temp.+5cm Temp. Wind Windchill X Diff Temp. Feuchte +2m Feuchte +5cm Luftdruck Regen Wind Richtung Richtung Sonnenschein Taupunkt Windchill Windben
12.03.2021 00:00 8,0 C 6,9 C 7,1 C 7,5 C 6,6 C 0,0 C 76 % 83 % 1004,1 hPa 0,0 l/m 6,8 km/h (2 Bft) S 180 0 min 4,0 C 5,3 C 6,3 km/h (2 Bft)
12.03.2021 00:05 8,0 C 6,9 C 7,1 C 7,6 C 6,8 C 0,0 C 76 % 82 % 1004,1 hPa 0,0 l/m 6,1 km/h (2 Bft) S-SW 202 0 min 4,0 C 5,8 C 8,9 km/h (2 Bft)
12.03.2021 00:10 8,0 C 6,9 C 7,0 C 7,7 C 7,1 C 0,0 C 76 % 82 % 1004,4 hPa 0,0 l/m 5,3 km/h (1 Bft) SW 225 0 min 4,0 C 6,4 C 5,8 km/h (2 Bft)
12.03.2021 00:15 8,0 C 6,9 C 7,0 C 7,7 C 7,2 C 0,0 C 76 % 81 % 1004,4 hPa 0,0 l/m 4,8 km/h (1 Bft) SW 225 0 min 4,0 C 6,7 C 4,3 km/h (1 Bft)
12.03.2021 00:20 8,0 C 6,9 C 7,0 C 7,6 C 6,9 C 0,0 C 76 % 81 % 1004,4 hPa 0,0 l/m 5,6 km/h (1 Bft) NW 315 0 min 4,0 C 6,0 C 18,8 km/h (3 Bft)
12.03.2021 00:25 8,0 C 6,9 C 6,9 C 7,6 C 6,9 C 0,0 C 76 % 81 % 1004,4 hPa 0,0 l/m 5,6 km/h (1 Bft) SW 225 0 min 4,0 C 6,0 C 6,0 km/h (2 Bft)
12.03.2021 00:30 7,9 C 6,9 C 6,8 C 7,7 C 7,2 C 0,0 C 76 % 81 % 1004,4 hPa 0,0 l/m 4,2 km/h (1 Bft) NO 45 0 min 3,9 C 7,2 C 5,3 km/h (1 Bft)
12.03.2021 00:35 7,8 C 6,9 C 6,8 C 7,7 C 7,4 C 0,0 C 76 % 81 % 1004,4 hPa 0,0 l/m 3,2 km/h (1 Bft) SO 135 0 min 3,8 C 7,4 C 1,9 km/h (1 Bft)
12.03.2021 00:40 7,8 C 6,9 C 6,7 C 7,6 C 7,3 C 0,0 C 76 % 81 % 1004,4 hPa 0,0 l/m 3,5 km/h (1 Bft) SO 135 0 min 3,8 C 7,3 C 4,5 km/h (1 Bft)
12.03.2021 00:45 7,7 C 6,9 C 6,7 C 7,5 C 7,2 C 0,0 C 76 % 81 % 1004,4 hPa 0,0 l/m 3,5 km/h (1 Bft) O-NO 67 0 min 3,7 C 7,2 C 6,9 km/h (2 Bft)
12.03.2021 00:50 7,7 C 6,9 C 6,7 C 7,4 C 6,9 C 0,0 C 76 % 81 % 1004,8 hPa 0,0 l/m 3,9 km/h (1 Bft) N 360 0 min 3,7 C 6,9 C 11,1 km/h (2 Bft)
12.03.2021 00:55 7,6 C 6,9 C 6,6 C 7,2 C 6,4 C 0,0 C 76 % 81 % 1004,8 hPa 0,0 l/m 5,0 km/h (1 Bft) SW 225 0 min 3,6 C 5,7 C 8,7 km/h (2 Bft)
12.03.2021 01:00 7,5 C 6,9 C 6,7 C 7,0 C 6,1 C 0,0 C 76 % 81 % 1004,8 hPa 0,0 l/m 6,8 km/h (2 Bft) SW 225 0 min 3,5 C 4,7 C 8,5 km/h (2 Bft)
12.03.2021 01:05 7,5 C 6,9 C 6,6 C 7,0 C 6,0 C 0,0 C 76 % 81 % 1004,8 hPa 0,0 l/m 7,1 km/h (2 Bft) S 180 0 min 3,5 C 4,5 C 6,8 km/h (2 Bft)
12.03.2021 01:10 7,5 C 6,9 C 6,6 C 7,0 C 6,1 C 0,0 C 76 % 80 % 1005,6 hPa 0,0 l/m 6,8 km/h (2 Bft) SW 225 0 min 3,5 C 4,7 C 6,9 km/h (2 Bft)
12.03.2021 01:15 7,3 C 6,9 C 6,6 C 7,0 C 6,4 C 0,0 C 76 % 80 % 1005,6 hPa 0,0 l/m 5,8 km/h (2 Bft) S 180 0 min 3,4 C 5,4 C 5,0 km/h (1 Bft)
12.03.2021 01:20 7,2 C 6,9 C 6,5 C 6,8 C 6,1 C 0,0 C 76 % 80 % 1005,6 hPa 0,0 l/m 6,3 km/h (2 Bft) SW 225 0 min 3,3 C 4,9 C 6,9 km/h (2 Bft)
12.03.2021 01:25 7,2 C 6,9 C 6,4 C 6,8 C 6,1 C 0,0 C 76 % 80 % 1005,6 hPa 0,0 l/m 6,3 km/h (2 Bft) SW 225 0 min 3,3 C 4,9 C 10,0 km/h (2 Bft)
12.03.2021 01:30 7,2 C 6,9 C 6,4 C 6,8 C 6,1 C 0,0 C 76 % 80 % 1005,8 hPa 0,0 l/m 6,1 km/h (2 Bft) S-SO 157 0 min 3,3 C 5,0 C 3,9 km/h (1 Bft)
12.03.2021 01:35 7,1 C 6,9 C 6,5 C 6,8 C 6,2 C 0,0 C 75 % 80 % 1005,8 hPa 0,0 l/m 6,0 km/h (2 Bft) S 180 0 min 3,0 C 5,1 C 5,8 km/h (2 Bft)
12.03.2021 01:40 7,1 C 6,9 C 6,4 C 7,1 C 7,1 C 0,0 C 75 % 80 % 1005,8 hPa 0,0 l/m 3,5 km/h (1 Bft) SO 135 0 min 3,0 C 7,1 C 1,8 km/h (1 Bft)
12.03.2021 01:45 7,0 C 6,9 C 6,4 C 7,0 C 7,0 C 0,0 C 75 % 79 % 1005,8 hPa 0,0 l/m 3,4 km/h (1 Bft) O-NO 67 0 min 2,9 C 7,0 C 6,1 km/h (2 Bft)
12.03.2021 01:50 7,1 C 6,9 C 6,5 C 7,1 C 7,1 C 0,0 C 76 % 79 % 1005,5 hPa 0,0 l/m 3,1 km/h (1 Bft) S 180 0 min 3,2 C 7,1 C 0,0 km/h (0 Bft)
12.03.2021 01:55 7,1 C 6,9 C 6,5 C 7,1 C 7,1 C 0,0 C 76 % 79 % 1005,5 hPa 0,0 l/m 3,1 km/h (1 Bft) O-SO 112 0 min 3,2 C 7,1 C 9,7 km/h (2 Bft)
12.03.2021 02:00 7,0 C 6,9 C 6,5 C 7,1 C 7,1 C 0,1 C 75 % 79 % 1005,5 hPa 0,0 l/m 3,2 km/h (1 Bft) W-SW 247 0 min 2,9 C 7,1 C 0,0 km/h (0 Bft)
12.03.2021 02:05 7,1 C 6,9 C 6,4 C 7,1 C 7,0 C 0,0 C 75 % 79 % 1005,5 hPa 0,0 l/m 3,1 km/h (1 Bft) SW 225 0 min 3,0 C 7,0 C 13,8 km/h (3 Bft)
12.03.2021 02:10 6,9 C 6,8 C 6,3 C 6,9 C 6,9 C 0,0 C 75 % 79 % 1005,4 hPa 0,0 l/m 2,7 km/h (1 Bft) SW 225 0 min 2,8 C 6,9 C 6,0 km/h (2 Bft)
12.03.2021 02:15 6,9 C 6,8 C 6,3 C 6,8 C 6,7 C 0,0 C 75 % 79 % 1005,4 hPa 0,0 l/m 3,5 km/h (1 Bft) W 270 0 min 2,8 C 6,7 C 5,1 km/h (1 Bft)
12.03.2021 02:20 6,9 C 6,8 C 6,3 C 6,4 C 5,3 C 0,0 C 75 % 79 % 1005,4 hPa 0,0 l/m 7,4 km/h (2 Bft) W-SW 247 0 min 2,8 C 3,6 C 22,2 km/h (4 Bft)
12.03.2021 02:25 6,9 C 6,8 C 6,3 C 6,5 C 5,2 C 0,0 C 75 % 79 % 1005,4 hPa 0,0 l/m 8,9 km/h (2 Bft) W 270 0 min 2,8 C 3,1 C 6,9 km/h (2 Bft)
12.03.2021 02:30 6,9 C 6,8 C 6,3 C 6,5 C 5,7 C 0,0 C 75 % 79 % 1005,8 hPa 0,0 l/m 7,1 km/h (2 Bft) S-SW 202 0 min 2,8 C 4,2 C 8,5 km/h (2 Bft)
12.03.2021 02:35 6,9 C 6,8 C 6,3 C 6,6 C 5,9 C 0,0 C 75 % 79 % 1005,8 hPa 0,0 l/m 6,0 km/h (2 Bft) SW 225 0 min 2,8 C 4,8 C 11,4 km/h (2 Bft)
12.03.2021 02:40 6,8 C 6,8 C 6,2 C 6,4 C 5,6 C 0,0 C 75 % 79 % 1005,8 hPa 0,0 l/m 6,6 km/h (2 Bft) SW 225 0 min 2,7 C 4,2 C 6,4 km/h (2 Bft)
12.03.2021 02:45 6,8 C 6,8 C 6,0 C 6,3 C 5,4 C 0,0 C 75 % 79 % 1005,8 hPa 0,0 l/m 6,9 km/h (2 Bft) SW 225 0 min 2,7 C 3,9 C 8,0 km/h (2 Bft)
12.03.2021 02:50 6,7 C 6,8 C 5,9 C 6,4 C 5,7 C 0,0 C 75 % 79 % 1005,6 hPa 0,0 l/m 5,0 km/h (1 Bft) SW 225 0 min 2,6 C 4,9 C 7,4 km/h (2 Bft)
12.03.2021 02:55 6,7 C 6,8 C 5,7 C 6,5 C 6,1 C 0,0 C 75 % 80 % 1005,6 hPa 0,0 l/m 3,5 km/h (1 Bft) S 180 0 min 2,6 C 6,1 C 2,9 km/h (1 Bft)
12.03.2021 03:00 6,5 C 6,8 C 5,6 C 6,3 C 6,0 C 0,0 C 75 % 80 % 1005,6 hPa 0,0 l/m 1,6 km/h (1 Bft) SO 135 0 min 2,4 C 6,0 C 0,0 km/h (0 Bft)
12.03.2021 03:05 6,4 C 6,8 C 5,6 C 6,2 C 5,9 C 0,0 C 75 % 80 % 1005,6 hPa 0,0 l/m 1,6 km/h (1 Bft) S-SW 202 0 min 2,3 C 5,9 C 5,5 km/h (1 Bft)
12.03.2021 03:10 6,4 C 6,8 C 5,7 C 6,3 C 6,1 C 0,0 C 75 % 80 % 1005,5 hPa 0,0 l/m 2,3 km/h (1 Bft) O-NO 67 0 min 2,3 C 6,1 C 2,6 km/h (1 Bft)
12.03.2021 03:15 6,4 C 6,8 C 5,8 C 6,3 C 6,2 C 0,0 C 75 % 80 % 1005,5 hPa 0,0 l/m 1,9 km/h (1 Bft) S-SW 202 0 min 2,3 C 6,2 C 4,3 km/h (1 Bft)
12.03.2021 03:20 6,4 C 6,8 C 5,8 C 6,4 C 6,3 C 0,0 C 75 % 79 % 1005,5 hPa 0,0 l/m 0,5 km/h (0 Bft) SW 225 0 min 2,3 C 6,3 C 0,0 km/h (0 Bft)
12.03.2021 03:25 6,4 C 6,8 C 5,9 C 6,4 C 6,4 C 0,0 C 75 % 79 % 1005,5 hPa 0,0 l/m 0,8 km/h (0 Bft) SO 135 0 min 2,3 C 6,4 C 5,1 km/h (1 Bft)
12.03.2021 03:30 6,5 C 6,8 C 5,9 C 6,5 C 6,4 C 0,0 C 75 % 78 % 1005,9 hPa 0,0 l/m 1,3 km/h (1 Bft) W-SW 247 0 min 2,4 C 6,4 C 0,0 km/h (0 Bft)
12.03.2021 03:35 6,5 C 6,8 C 5,9 C 6,5 C 6,4 C 0,0 C 75 % 78 % 1005,9 hPa 0,0 l/m 1,9 km/h (1 Bft) S 180 0 min 2,4 C 6,4 C 4,7 km/h (1 Bft)
12.03.2021 03:40 6,5 C 6,8 C 5,9 C 6,3 C 5,9 C 0,0 C 75 % 78 % 1005,9 hPa 0,0 l/m 4,2 km/h (1 Bft) S-SW 202 0 min 2,4 C 5,9 C 3,4 km/h (1 Bft)
12.03.2021 03:45 6,5 C 6,8 C 5,9 C 6,3 C 5,9 C 0,0 C 75 % 78 % 1005,9 hPa 0,0 l/m 4,7 km/h (1 Bft) SW 225 0 min 2,4 C 5,2 C 2,9 km/h (1 Bft)
12.03.2021 03:50 6,5 C 6,8 C 5,9 C 6,4 C 6,1 C 0,0 C 75 % 78 % 1005,9 hPa 0,0 l/m 4,5 km/h (1 Bft) S 180 0 min 2,4 C 6,1 C 8,2 km/h (2 Bft)
12.03.2021 03:55 6,6 C 6,8 C 5,9 C 6,3 C 5,6 C 0,0 C 75 % 78 % 1005,9 hPa 0,0 l/m 6,3 km/h (2 Bft) S-SO 157 0 min 2,5 C 4,3 C 14,3 km/h (3 Bft)
12.03.2021 04:00 6,6 C 6,8 C 5,9 C 6,3 C 5,0 C 0,0 C 75 % 79 % 1005,9 hPa 0,0 l/m 7,9 km/h (2 Bft) SW 225 0 min 2,5 C 3,2 C 12,6 km/h (3 Bft)
12.03.2021 04:05 6,5 C 6,8 C 5,9 C 6,1 C 4,7 C 0,0 C 75 % 79 % 1005,9 hPa 0,0 l/m 9,5 km/h (2 Bft) SW 225 0 min 2,4 C 2,4 C 20,8 km/h (4 Bft)
12.03.2021 04:10 6,5 C 6,7 C 5,8 C 6,1 C 4,3 C 0,0 C 75 % 79 % 1006,1 hPa 0,0 l/m 10,6 km/h (2 Bft) S 180 0 min 2,4 C 1,7 C 11,7 km/h (2 Bft)
12.03.2021 04:15 6,5 C 6,7 C 5,8 C 6,0 C 3,9 C 0,0 C 76 % 80 % 1006,1 hPa 0,0 l/m 12,2 km/h (2 Bft) SW 225 0 min 2,6 C 0,9 C 23,0 km/h (4 Bft)
12.03.2021 04:20 6,4 C 6,7 C 5,8 C 5,8 C 3,8 C 0,0 C 76 % 80 % 1006,1 hPa 0,0 l/m 12,9 km/h (3 Bft) SW 225 0 min 2,5 C 0,6 C 24,5 km/h (4 Bft)
12.03.2021 04:25 6,4 C 6,7 C 5,8 C 5,8 C 3,6 C 0,0 C 76 % 80 % 1006,1 hPa 0,0 l/m 13,7 km/h (3 Bft) W-SW 247 0 min 2,5 C 0,2 C 11,4 km/h (2 Bft)
12.03.2021 04:30 6,4 C 6,7 C 5,8 C 5,8 C 3,9 C 0,0 C 76 % 80 % 1006,5 hPa 0,0 l/m 13,0 km/h (3 Bft) SW 225 0 min 2,5 C 0,7 C 14,5 km/h (3 Bft)
12.03.2021 04:35 6,4 C 6,7 C 5,8 C 5,9 C 4,0 C 0,0 C 76 % 80 % 1006,5 hPa 0,0 l/m 11,6 km/h (2 Bft) SW 225 0 min 2,5 C 1,1 C 19,6 km/h (3 Bft)
12.03.2021 04:40 6,3 C 6,7 C 5,6 C 5,8 C 3,9 C 0,0 C 76 % 80 % 1006,5 hPa 0,0 l/m 11,6 km/h (2 Bft) S-SW 202 0 min 2,4 C 1,0 C 11,1 km/h (2 Bft)
12.03.2021 04:45 6,3 C 6,7 C 5,5 C 5,7 C 3,7 C 0,0 C 76 % 80 % 1006,5 hPa 0,0 l/m 11,4 km/h (2 Bft) S 180 0 min 2,4 C 0,8 C 13,2 km/h (3 Bft)
12.03.2021 04:50 6,1 C 6,7 C 5,5 C 5,3 C 3,7 C 0,0 C 76 % 80 % 1006,4 hPa 0,0 l/m 11,1 km/h (2 Bft) S-SW 202 0 min 2,2 C 0,9 C 13,0 km/h (3 Bft)
12.03.2021 04:55 6,0 C 6,7 C 5,5 C 5,5 C 3,9 C 0,0 C 76 % 80 % 1006,4 hPa 0,0 l/m 10,3 km/h (2 Bft) S 180 0 min 2,1 C 1,3 C 13,5 km/h (3 Bft)
12.03.2021 05:00 6,0 C 6,7 C 5,5 C 5,6 C 4,1 C 0,0 C 76 % 80 % 1006,4 hPa 0,0 l/m 9,7 km/h (2 Bft) S 180 0 min 2,1 C 1,7 C 12,2 km/h (2 Bft)
12.03.2021 05:05 6,1 C 6,7 C 5,5 C 5,6 C 3,8 C 0,0 C 76 % 79 % 1006,4 hPa 0,0 l/m 10,0 km/h (2 Bft) S-SW 202 0 min 2,2 C 1,2 C 16,1 km/h (3 Bft)
12.03.2021 05:10 6,0 C 6,7 C 5,4 C 5,5 C 4,0 C 0,0 C 76 % 79 % 1006,9 hPa 0,0 l/m 9,3 km/h (2 Bft) S-SW 202 0 min 2,1 C 1,6 C 10,0 km/h (2 Bft)
12.03.2021 05:15 6,1 C 6,7 C 5,4 C 5,6 C 3,6 C 0,0 C 76 % 79 % 1006,9 hPa 0,0 l/m 10,5 km/h (2 Bft) S 180 0 min 2,2 C 0,9 C 20,8 km/h (4 Bft)
12.03.2021 05:20 6,0 C 6,7 C 5,4 C 5,4 C 3,3 C 0,0 C 75 % 79 % 1006,9 hPa 0,0 l/m 11,9 km/h (2 Bft) W-SW 247 0 min 1,9 C 0,2 C 16,6 km/h (3 Bft)
12.03.2021 05:25 6,0 C 6,7 C 5,3 C 5,4 C 3,5 C 0,0 C 75 % 79 % 1006,9 hPa 0,0 l/m 11,1 km/h (2 Bft) S-SW 202 0 min 1,9 C 0,6 C 15,8 km/h (3 Bft)
12.03.2021 05:30 6,0 C 6,7 C 5,2 C 5,5 C 3,8 C 0,0 C 76 % 80 % 1007,1 hPa 0,0 l/m 9,0 km/h (2 Bft) W-SW 247 0 min 2,1 C 1,5 C 13,5 km/h (3 Bft)
12.03.2021 05:35 5,9 C 6,7 C 5,1 C 5,4 C 3,5 C 0,0 C 76 % 81 % 1007,1 hPa 0,0 l/m 10,1 km/h (2 Bft) SW 225 0 min 2,0 C 0,8 C 14,5 km/h (3 Bft)
12.03.2021 05:40 5,9 C 6,7 C 5,1 C 5,3 C 3,3 C 0,0 C 77 % 81 % 1007,1 hPa 0,0 l/m 10,9 km/h (2 Bft) SW 225 0 min 2,2 C 0,4 C 11,1 km/h (2 Bft)
12.03.2021 05:45 5,8 C 6,6 C 5,1 C 5,2 C 3,0 C 0,0 C 77 % 81 % 1007,1 hPa 0,0 l/m 11,9 km/h (2 Bft) SW 225 0 min 2,1 C -0,1 C 11,3 km/h (2 Bft)
12.03.2021 05:50 5,7 C 6,6 C 5,1 C 5,1 C 3,1 C 0,0 C 77 % 81 % 1007,6 hPa 0,0 l/m 12,4 km/h (3 Bft) W-SW 247 0 min 2,0 C -0,1 C 10,5 km/h (2 Bft)
12.03.2021 05:55 5,7 C 6,6 C 5,0 C 5,1 C 3,0 C 0,0 C 77 % 81 % 1007,6 hPa 0,0 l/m 11,3 km/h (2 Bft) S-SW 202 0 min 2,0 C -0,0 C 10,9 km/h (2 Bft)
12.03.2021 06:00 5,6 C 6,6 C 4,9 C 5,0 C 3,1 C 0,0 C 78 % 81 % 1007,6 hPa 0,0 l/m 10,6 km/h (2 Bft) SW 225 0 min 2,1 C 0,3 C 11,4 km/h (2 Bft)
12.03.2021 06:05 5,6 C 6,6 C 4,9 C 5,0 C 2,8 C 0,0 C 78 % 81 % 1007,6 hPa 0,0 l/m 12,1 km/h (2 Bft) S-SW 202 0 min 2,1 C -0,4 C 10,9 km/h (2 Bft)
12.03.2021 06:10 5,6 C 6,6 C 4,9 C 4,7 C 2,8 C 0,0 C 78 % 81 % 1007,7 hPa 0,0 l/m 11,4 km/h (2 Bft) SW 225 0 min 2,1 C -0,3 C 25,4 km/h (4 Bft)
12.03.2021 06:15 5,5 C 6,6 C 4,8 C 4,9 C 3,0 C 0,0 C 78 % 82 % 1007,7 hPa 0,0 l/m 10,6 km/h (2 Bft) S-SW 202 0 min 2,0 C 0,1 C 18,5 km/h (3 Bft)
12.03.2021 06:20 5,5 C 6,6 C 4,9 C 4,9 C 2,9 C 0,0 C 78 % 81 % 1007,7 hPa 0,0 l/m 11,1 km/h (2 Bft) S 180 0 min 2,0 C -0,1 C 14,6 km/h (3 Bft)
12.03.2021 06:25 5,6 C 6,6 C 5,0 C 5,0 C 3,0 C 0,0 C 78 % 81 % 1007,7 hPa 0,0 l/m 10,6 km/h (2 Bft) SW 225 0 min 2,1 C 0,1 C 17,7 km/h (3 Bft)
12.03.2021 06:30 5,6 C 6,6 C 5,0 C 5,1 C 3,6 C 0,0 C 78 % 81 % 1008,1 hPa 0,0 l/m 9,0 km/h (2 Bft) W-SW 247 0 min 2,1 C 1,2 C 8,2 km/h (2 Bft)
12.03.2021 06:35 5,6 C 6,6 C 5,1 C 5,1 C 3,3 C 0,0 C 78 % 81 % 1008,1 hPa 0,0 l/m 10,8 km/h (2 Bft) S-SW 202 0 min 2,1 C 0,4 C 15,6 km/h (3 Bft)
12.03.2021 06:40 5,6 C 6,6 C 5,0 C 5,1 C 3,2 C 0,0 C 77 % 81 % 1008,1 hPa 0,0 l/m 11,9 km/h (2 Bft) S-SW 202 0 min 1,9 C 0,1 C 27,4 km/h (4 Bft)
12.03.2021 06:45 5,6 C 6,6 C 5,1 C 5,1 C 3,1 C 0,0 C 77 % 80 % 1008,1 hPa 0,0 l/m 12,4 km/h (3 Bft) SO 135 0 min 1,9 C -0,1 C 19,6 km/h (3 Bft)
12.03.2021 06:50 5,6 C 6,6 C 5,1 C 5,1 C 3,2 C 0,0 C 76 % 79 % 1008,5 hPa 0,0 l/m 12,2 km/h (2 Bft) SW 225 0 min 1,7 C 0,0 C 14,0 km/h (3 Bft)
12.03.2021 06:55 5,7 C 6,6 C 5,1 C 4,9 C 3,2 C 0,0 C 76 % 79 % 1008,5 hPa 0,0 l/m 11,9 km/h (2 Bft) S 180 0 min 1,8 C 0,1 C 14,2 km/h (3 Bft)
12.03.2021 07:00 5,6 C 6,6 C 5,1 C 5,1 C 3,6 C 0,0 C 76 % 79 % 1008,5 hPa 0,0 l/m 9,8 km/h (2 Bft) S 180 0 min 1,7 C 1,0 C 14,0 km/h (3 Bft)
12.03.2021 07:05 5,6 C 6,6 C 5,1 C 4,9 C 3,6 C 0,0 C 76 % 79 % 1008,5 hPa 0,0 l/m 9,5 km/h (2 Bft) SW 225 0 min 1,7 C 1,1 C 14,2 km/h (3 Bft)
12.03.2021 07:10 5,6 C 6,5 C 5,1 C 5,2 C 3,7 C 0,0 C 76 % 79 % 1008,9 hPa 0,0 l/m 9,5 km/h (2 Bft) SW 225 0 min 1,7 C 1,2 C 10,8 km/h (2 Bft)
12.03.2021 07:15 5,7 C 6,5 C 5,2 C 5,3 C 4,0 C 0,0 C 76 % 79 % 1008,9 hPa 0,0 l/m 8,9 km/h (2 Bft) S 180 0 min 1,8 C 1,7 C 10,6 km/h (2 Bft)
12.03.2021 07:20 5,7 C 6,5 C 5,2 C 5,3 C 3,9 C 0,0 C 75 % 78 % 1008,9 hPa 0,0 l/m 9,0 km/h (2 Bft) SW 225 0 min 1,6 C 1,6 C 23,0 km/h (4 Bft)
12.03.2021 07:25 5,7 C 6,5 C 5,3 C 5,3 C 4,0 C 0,0 C 75 % 78 % 1008,9 hPa 0,0 l/m 9,3 km/h (2 Bft) SW 225 0 min 1,6 C 1,6 C 8,4 km/h (2 Bft)
12.03.2021 07:30 5,7 C 6,5 C 5,3 C 5,3 C 3,8 C 0,0 C 74 % 77 % 1009,4 hPa 0,0 l/m 10,0 km/h (2 Bft) S 180 0 min 1,4 C 1,2 C 8,9 km/h (2 Bft)
12.03.2021 07:35 5,7 C 6,5 C 5,3 C 5,3 C 4,1 C 0,0 C 74 % 77 % 1009,4 hPa 0,0 l/m 8,5 km/h (2 Bft) S 180 0 min 1,4 C 1,9 C 7,2 km/h (2 Bft)
12.03.2021 07:40 5,7 C 6,5 C 5,3 C 5,2 C 4,1 C 0,0 C 74 % 77 % 1009,4 hPa 0,0 l/m 8,2 km/h (2 Bft) S-SW 202 0 min 1,4 C 2,0 C 4,5 km/h (1 Bft)
12.03.2021 07:45 5,7 C 6,5 C 5,3 C 5,4 C 4,2 C 0,0 C 74 % 77 % 1009,4 hPa 0,0 l/m 7,9 km/h (2 Bft) SW 225 0 min 1,4 C 2,2 C 16,7 km/h (3 Bft)
12.03.2021 07:50 5,7 C 6,5 C 5,3 C 5,3 C 4,6 C 0,0 C 74 % 77 % 1010,0 hPa 0,0 l/m 6,9 km/h (2 Bft) SW 225 0 min 1,4 C 3,0 C 7,4 km/h (2 Bft)
12.03.2021 07:55 5,7 C 6,5 C 5,3 C 5,3 C 4,5 C 0,0 C 74 % 77 % 1010,0 hPa 0,0 l/m 7,2 km/h (2 Bft) O-SO 112 0 min 1,4 C 2,8 C 4,5 km/h (1 Bft)
12.03.2021 08:00 5,7 C 6,5 C 5,3 C 5,4 C 4,7 C 0,0 C 74 % 77 % 1010,0 hPa 0,0 l/m 6,0 km/h (2 Bft) W-SW 247 0 min 1,4 C 3,4 C 8,4 km/h (2 Bft)
12.03.2021 08:05 5,7 C 6,5 C 5,3 C 5,3 C 4,6 C 0,0 C 74 % 77 % 1010,0 hPa 0,0 l/m 6,3 km/h (2 Bft) S 180 0 min 1,4 C 3,2 C 7,4 km/h (2 Bft)
12.03.2021 08:10 5,7 C 6,5 C 5,4 C 5,5 C 5,1 C 0,0 C 74 % 77 % 1010,0 hPa 0,0 l/m 5,5 km/h (1 Bft) S 180 0 min 1,4 C 4,0 C 5,1 km/h (1 Bft)
12.03.2021 08:15 5,7 C 6,5 C 5,4 C 5,5 C 5,2 C 0,0 C 74 % 76 % 1010,0 hPa 0,0 l/m 5,5 km/h (1 Bft) S 180 0 min 1,4 C 4,1 C 9,5 km/h (2 Bft)
12.03.2021 08:20 5,8 C 6,5 C 5,4 C 5,6 C 5,2 C 0,0 C 74 % 76 % 1010,0 hPa 0,0 l/m 5,5 km/h (1 Bft) SW 225 0 min 1,5 C 4,1 C 10,8 km/h (2 Bft)
12.03.2021 08:25 5,8 C 6,5 C 5,5 C 5,6 C 5,3 C 0,0 C 74 % 76 % 1010,0 hPa 0,0 l/m 5,1 km/h (1 Bft) S-SW 202 0 min 1,5 C 4,4 C 4,3 km/h (1 Bft)
12.03.2021 08:30 5,9 C 6,5 C 5,6 C 5,7 C 5,3 C 0,0 C 73 % 76 % 1010,4 hPa 0,0 l/m 5,5 km/h (1 Bft) S-SW 202 0 min 1,4 C 4,2 C 15,9 km/h (3 Bft)
12.03.2021 08:35 5,9 C 6,5 C 5,5 C 5,6 C 4,9 C 0,0 C 73 % 75 % 1010,4 hPa 0,0 l/m 6,9 km/h (2 Bft) S-SW 202 0 min 1,4 C 3,3 C 12,6 km/h (3 Bft)
12.03.2021 08:40 5,9 C 6,5 C 5,7 C 5,5 C 4,8 C 0,0 C 72 % 75 % 1010,4 hPa 0,0 l/m 7,6 km/h (2 Bft) W-SW 247 0 min 1,2 C 3,0 C 9,3 km/h (2 Bft)
12.03.2021 08:45 6,0 C 6,5 C 5,8 C 5,7 C 5,2 C 0,0 C 72 % 75 % 1010,4 hPa 0,0 l/m 6,6 km/h (2 Bft) W-SW 247 0 min 1,3 C 3,8 C 5,5 km/h (1 Bft)
12.03.2021 08:50 6,1 C 6,5 C 5,8 C 6,1 C 6,0 C 0,0 C 72 % 75 % 1010,8 hPa 0,0 l/m 4,7 km/h (1 Bft) W-SW 247 0 min 1,4 C 5,3 C 4,3 km/h (1 Bft)
12.03.2021 08:55 6,0 C 6,5 C 5,9 C 6,4 C 6,4 C 0,4 C 72 % 74 % 1010,8 hPa 0,0 l/m 3,9 km/h (1 Bft) S-SW 202 0 min 1,3 C 6,4 C 8,7 km/h (2 Bft)
12.03.2021 09:00 6,0 C 6,3 C 5,9 C 6,7 C 6,7 C 0,7 C 72 % 74 % 1010,8 hPa 0,0 l/m 3,5 km/h (1 Bft) S-SW 202 0 min 1,3 C 6,7 C 2,9 km/h (1 Bft)
12.03.2021 09:05 6,1 C 6,3 C 5,9 C 6,2 C 6,2 C 0,1 C 72 % 74 % 1010,8 hPa 0,0 l/m 4,7 km/h (1 Bft) SW 225 0 min 1,4 C 5,6 C 7,6 km/h (2 Bft)
12.03.2021 09:10 6,2 C 6,3 C 5,9 C 6,1 C 5,8 C 0,0 C 71 % 74 % 1011,2 hPa 0,0 l/m 5,6 km/h (1 Bft) SW 225 0 min 1,3 C 4,8 C 14,5 km/h (3 Bft)
12.03.2021 09:15 6,3 C 6,3 C 5,9 C 6,1 C 5,8 C 0,0 C 71 % 74 % 1011,2 hPa 0,0 l/m 5,8 km/h (2 Bft) SW 225 0 min 1,4 C 4,7 C 3,7 km/h (1 Bft)
12.03.2021 09:20 6,2 C 6,3 C 6,0 C 6,1 C 5,8 C 0,0 C 71 % 73 % 1011,2 hPa 0,0 l/m 6,0 km/h (2 Bft) S 180 0 min 1,3 C 4,6 C 10,9 km/h (2 Bft)
12.03.2021 09:25 6,3 C 6,3 C 6,0 C 6,1 C 5,6 C 0,0 C 70 % 73 % 1011,2 hPa 0,0 l/m 6,6 km/h (2 Bft) S 180 0 min 1,2 C 4,2 C 19,8 km/h (3 Bft)
12.03.2021 09:30 6,3 C 6,3 C 6,0 C 6,0 C 5,3 C 0,0 C 70 % 73 % 1011,3 hPa 0,0 l/m 7,2 km/h (2 Bft) O-SO 112 0 min 1,2 C 3,7 C 11,6 km/h (2 Bft)
12.03.2021 09:35 6,3 C 6,3 C 6,0 C 6,1 C 4,9 C 0,0 C 70 % 72 % 1011,3 hPa 0,0 l/m 9,0 km/h (2 Bft) S 180 0 min 1,2 C 2,8 C 12,4 km/h (3 Bft)
12.03.2021 09:40 6,3 C 6,3 C 6,0 C 6,0 C 4,8 C 0,0 C 70 % 72 % 1011,3 hPa 0,0 l/m 9,5 km/h (2 Bft) SW 225 0 min 1,2 C 2,5 C 16,1 km/h (3 Bft)
12.03.2021 09:45 6,3 C 6,3 C 6,0 C 6,0 C 4,9 C 0,0 C 70 % 73 % 1011,3 hPa 0,0 l/m 8,9 km/h (2 Bft) SW 225 0 min 1,2 C 2,8 C 7,9 km/h (2 Bft)
12.03.2021 09:50 6,3 C 6,3 C 6,1 C 5,8 C 4,9 C 0,0 C 70 % 73 % 1011,5 hPa 0,0 l/m 8,9 km/h (2 Bft) SW 225 0 min 1,2 C 2,8 C 11,3 km/h (2 Bft)
12.03.2021 09:55 6,4 C 6,3 C 6,3 C 6,2 C 5,2 C 0,0 C 70 % 73 % 1011,5 hPa 0,0 l/m 8,7 km/h (2 Bft) SO 135 0 min 1,3 C 3,2 C 7,6 km/h (2 Bft)
12.03.2021 10:00 6,5 C 6,3 C 6,6 C 6,4 C 5,9 C 0,0 C 70 % 72 % 1011,5 hPa 0,0 l/m 8,5 km/h (2 Bft) S 180 0 min 1,4 C 4,1 C 19,0 km/h (3 Bft)
12.03.2021 10:05 6,7 C 6,3 C 6,8 C 6,7 C 6,3 C 0,0 C 70 % 71 % 1011,5 hPa 0,0 l/m 8,2 km/h (2 Bft) S-SO 157 0 min 1,6 C 4,6 C 4,8 km/h (1 Bft)
12.03.2021 10:10 6,8 C 6,3 C 7,1 C 7,2 C 6,9 C 0,4 C 70 % 71 % 1011,6 hPa 0,0 l/m 8,5 km/h (2 Bft) SW 225 0 min 1,7 C 5,2 C 7,2 km/h (2 Bft)
12.03.2021 10:15 6,8 C 6,3 C 7,1 C 7,4 C 7,4 C 0,6 C 69 % 70 % 1011,6 hPa 0,0 l/m 6,4 km/h (2 Bft) S-SW 202 0 min 1,5 C 6,4 C 7,1 km/h (2 Bft)
12.03.2021 10:20 6,8 C 6,3 C 6,8 C 6,8 C 6,8 C 0,0 C 69 % 70 % 1011,6 hPa 0,0 l/m 6,6 km/h (2 Bft) SW 225 0 min 1,5 C 5,6 C 17,5 km/h (3 Bft)
12.03.2021 10:25 6,7 C 6,3 C 6,8 C 6,7 C 6,6 C 0,0 C 68 % 70 % 1011,6 hPa 0,0 l/m 7,1 km/h (2 Bft) SW 225 0 min 1,2 C 5,2 C 5,3 km/h (1 Bft)
12.03.2021 10:30 6,7 C 6,3 C 6,8 C 6,6 C 6,4 C 0,0 C 68 % 70 % 1011,7 hPa 0,0 l/m 7,2 km/h (2 Bft) SW 225 0 min 1,2 C 5,0 C 10,1 km/h (2 Bft)
12.03.2021 10:35 6,8 C 6,3 C 7,1 C 6,8 C 6,7 C 0,0 C 68 % 69 % 1011,7 hPa 0,0 l/m 6,8 km/h (2 Bft) S 180 0 min 1,3 C 5,4 C 10,6 km/h (2 Bft)
12.03.2021 10:40 6,9 C 6,3 C 7,3 C 7,2 C 7,2 C 0,3 C 68 % 69 % 1011,7 hPa 0,0 l/m 7,2 km/h (2 Bft) SW 225 0 min 1,4 C 5,9 C 4,0 km/h (1 Bft)
12.03.2021 10:45 6,9 C 6,3 C 7,4 C 7,4 C 6,7 C 0,5 C 67 % 67 % 1011,7 hPa 0,0 l/m 10,1 km/h (2 Bft) W-NW 292 0 min 1,2 C 4,7 C 23,3 km/h (4 Bft)
12.03.2021 10:50 6,9 C 6,3 C 7,5 C 7,1 C 6,2 C 0,2 C 66 % 67 % 1011,6 hPa 0,0 l/m 12,1 km/h (2 Bft) SO 135 0 min 1,0 C 3,7 C 7,9 km/h (2 Bft)
12.03.2021 10:55 6,9 C 6,3 C 7,6 C 6,9 C 6,3 C 0,0 C 66 % 66 % 1011,6 hPa 0,0 l/m 12,1 km/h (2 Bft) N-NW 337 0 min 1,0 C 3,8 C 12,4 km/h (3 Bft)
12.03.2021 11:00 7,0 C 6,3 C 7,5 C 7,1 C 6,6 C 0,1 C 65 % 65 % 1011,6 hPa 0,0 l/m 10,8 km/h (2 Bft) SW 225 0 min 0,9 C 4,4 C 14,3 km/h (3 Bft)
12.03.2021 11:05 7,0 C 6,3 C 7,5 C 7,2 C 6,7 C 0,2 C 65 % 65 % 1011,6 hPa 0,0 l/m 10,1 km/h (2 Bft) SW 225 0 min 0,9 C 4,7 C 10,9 km/h (2 Bft)
12.03.2021 11:10 7,1 C 6,3 C 7,6 C 7,0 C 6,7 C 0,0 C 65 % 65 % 1011,8 hPa 0,0 l/m 10,0 km/h (2 Bft) SW 225 0 min 1,0 C 4,7 C 26,4 km/h (4 Bft)
12.03.2021 11:15 7,1 C 6,3 C 7,6 C 7,2 C 6,5 C 0,1 C 65 % 65 % 1011,8 hPa 0,0 l/m 11,1 km/h (2 Bft) S 180 0 min 1,0 C 4,2 C 16,7 km/h (3 Bft)
12.03.2021 11:20 7,2 C 6,3 C 7,9 C 7,3 C 6,7 C 0,1 C 65 % 65 % 1011,8 hPa 0,0 l/m 12,6 km/h (3 Bft) W-SW 247 0 min 1,1 C 4,2 C 9,3 km/h (2 Bft)
12.03.2021 11:25 7,3 C 6,3 C 8,1 C 7,7 C 7,2 C 0,4 C 65 % 65 % 1011,8 hPa 0,0 l/m 12,1 km/h (2 Bft) SW 225 0 min 1,2 C 4,9 C 13,7 km/h (3 Bft)
12.03.2021 11:30 7,5 C 6,3 C 8,3 C 8,1 C 7,7 C 0,6 C 65 % 65 % 1012,1 hPa 0,0 l/m 10,3 km/h (2 Bft) S 180 0 min 1,4 C 5,8 C 13,8 km/h (3 Bft)
12.03.2021 11:35 7,5 C 6,3 C 8,6 C 8,6 C 8,4 C 1,1 C 65 % 64 % 1012,1 hPa 0,0 l/m 9,7 km/h (2 Bft) NW 315 0 min 1,4 C 6,8 C 14,6 km/h (3 Bft)
12.03.2021 11:40 7,8 C 6,3 C 8,9 C 9,2 C 9,0 C 1,4 C 65 % 63 % 1012,1 hPa 0,0 l/m 9,3 km/h (2 Bft) SW 225 0 min 1,6 C 7,6 C 12,7 km/h (3 Bft)
12.03.2021 11:45 7,7 C 6,3 C 8,8 C 9,2 C 8,5 C 1,5 C 63 % 62 % 1012,1 hPa 0,0 l/m 12,4 km/h (3 Bft) S-SW 202 0 min 1,1 C 6,4 C 15,9 km/h (3 Bft)
12.03.2021 11:50 7,9 C 6,3 C 8,9 C 9,0 C 8,3 C 1,1 C 62 % 61 % 1011,8 hPa 0,0 l/m 12,7 km/h (3 Bft) SW 225 0 min 1,1 C 6,1 C 27,8 km/h (4 Bft)
12.03.2021 11:55 7,9 C 6,3 C 9,1 C 9,1 C 8,7 C 1,2 C 62 % 61 % 1011,8 hPa 0,0 l/m 11,4 km/h (2 Bft) W 270 0 min 1,1 C 6,8 C 13,4 km/h (3 Bft)
12.03.2021 12:00 8,0 C 6,3 C 9,5 C 9,5 C 9,1 C 1,5 C 62 % 60 % 1011,8 hPa 0,0 l/m 13,2 km/h (3 Bft) SW 225 0 min 1,2 C 7,0 C 16,3 km/h (3 Bft)
12.03.2021 12:05 8,2 C 6,3 C 10,0 C 9,9 C 9,5 C 1,7 C 62 % 59 % 1011,8 hPa 0,0 l/m 12,9 km/h (3 Bft) S 180 0 min 1,4 C 7,6 C 13,8 km/h (3 Bft)
12.03.2021 12:10 8,2 C 6,3 C 10,1 C 9,5 C 9,5 C 1,3 C 62 % 59 % 1011,5 hPa 0,0 l/m 12,9 km/h (3 Bft) S 180 0 min 1,4 C 7,6 C 13,8 km/h (3 Bft)
12.03.2021 12:15 8,2 C 6,3 C 10,1 C 9,5 C 9,5 C 1,3 C 62 % 59 % 1011,5 hPa 0,0 l/m 12,9 km/h (3 Bft) S 180 0 min 1,4 C 7,6 C 13,8 km/h (3 Bft)
12.03.2021 12:20 8,4 C 6,3 C 10,1 C 10,2 C 9,7 C 1,8 C 59 % 54 % 1011,5 hPa 0,0 l/m 15,4 km/h (3 Bft) S 180 0 min 0,9 C 7,5 C 19,3 km/h (3 Bft)
12.03.2021 12:25 8,4 C 6,3 C 10,3 C 10,5 C 10,1 C 2,1 C 59 % 56 % 1011,5 hPa 0,0 l/m 14,6 km/h (3 Bft) SW 225 0 min 0,9 C 10,1 C 12,2 km/h (2 Bft)
12.03.2021 12:30 8,8 C 6,4 C 10,6 C 11,6 C 11,8 C 2,8 C 59 % 56 % 1011,8 hPa 0,0 l/m 12,7 km/h (3 Bft) SW 225 0 min 1,2 C 11,8 C 18,3 km/h (3 Bft)
12.03.2021 12:35 8,9 C 6,4 C 10,6 C 12,2 C 11,9 C 3,3 C 59 % 55 % 1011,8 hPa 0,0 l/m 12,4 km/h (3 Bft) SW 225 5 min 1,3 C 11,9 C 16,6 km/h (3 Bft)
12.03.2021 12:40 8,7 C 6,4 C 10,3 C 11,4 C 10,4 C 2,7 C 58 % 55 % 1011,8 hPa 0,0 l/m 13,5 km/h (3 Bft) SO 135 0 min 0,9 C 10,4 C 8,2 km/h (2 Bft)
12.03.2021 12:45 8,7 C 6,4 C 10,1 C 11,0 C 10,7 C 2,3 C 60 % 57 % 1011,8 hPa 0,0 l/m 10,6 km/h (2 Bft) S-SW 202 0 min 1,4 C 10,7 C 6,0 km/h (2 Bft)
12.03.2021 12:50 8,7 C 6,4 C 9,9 C 11,0 C 11,0 C 2,3 C 61 % 58 % 1011,6 hPa 0,0 l/m 6,1 km/h (2 Bft) S-SW 202 0 min 1,6 C 11,0 C 12,4 km/h (3 Bft)
12.03.2021 12:55 8,7 C 6,4 C 9,9 C 10,7 C 10,7 C 2,0 C 61 % 59 % 1011,6 hPa 0,0 l/m 6,8 km/h (2 Bft) W-SW 247 0 min 1,6 C 10,7 C 13,4 km/h (3 Bft)
12.03.2021 13:00 8,5 C 6,4 C 9,7 C 10,3 C 9,4 C 1,8 C 60 % 57 % 1011,6 hPa 0,0 l/m 10,8 km/h (2 Bft) SW 225 0 min 1,2 C 7,8 C 19,8 km/h (3 Bft)
12.03.2021 13:05 8,5 C 6,4 C 9,7 C 9,7 C 9,1 C 1,2 C 59 % 56 % 1011,6 hPa 0,0 l/m 11,7 km/h (2 Bft) S-SW 202 0 min 1,0 C 7,3 C 15,4 km/h (3 Bft)
12.03.2021 13:10 8,5 C 6,4 C 9,6 C 9,4 C 8,7 C 0,9 C 57 % 54 % 1011,6 hPa 0,0 l/m 13,8 km/h (3 Bft) SW 225 0 min 0,5 C 6,5 C 14,6 km/h (3 Bft)
12.03.2021 13:15 8,7 C 6,4 C 9,6 C 9,3 C 8,6 C 0,6 C 57 % 56 % 1011,6 hPa 0,0 l/m 14,2 km/h (3 Bft) W-SW 247 0 min 0,7 C 6,3 C 18,0 km/h (3 Bft)
12.03.2021 13:20 8,6 C 6,4 C 9,5 C 9,3 C 8,9 C 0,7 C 58 % 56 % 1011,6 hPa 0,0 l/m 11,6 km/h (2 Bft) SW 225 0 min 0,8 C 7,0 C 13,7 km/h (3 Bft)
12.03.2021 13:25 8,6 C 6,4 C 9,5 C 8,9 C 8,9 C 0,3 C 58 % 57 % 1011,6 hPa 0,0 l/m 12,1 km/h (2 Bft) SW 225 0 min 0,8 C 7,0 C 15,8 km/h (3 Bft)
12.03.2021 13:30 8,7 C 6,4 C 9,6 C 9,7 C 9,4 C 1,0 C 59 % 57 % 1011,3 hPa 0,0 l/m 10,6 km/h (2 Bft) SW 225 0 min 1,1 C 7,8 C 13,7 km/h (3 Bft)
12.03.2021 13:35 8,8 C 6,4 C 9,7 C 10,0 C 9,6 C 1,2 C 59 % 58 % 1011,3 hPa 0,0 l/m 10,5 km/h (2 Bft) S 180 0 min 1,2 C 8,1 C 24,0 km/h (4 Bft)
12.03.2021 13:40 8,8 C 6,4 C 9,8 C 9,6 C 9,6 C 0,8 C 59 % 57 % 1011,3 hPa 0,0 l/m 12,4 km/h (3 Bft) SW 225 0 min 1,2 C 7,8 C 19,6 km/h (3 Bft)
12.03.2021 13:45 8,8 C 6,4 C 9,8 C 10,2 C 9,7 C 1,4 C 58 % 56 % 1011,3 hPa 0,0 l/m 12,6 km/h (3 Bft) SW 225 0 min 1,0 C 7,9 C 14,0 km/h (3 Bft)
12.03.2021 13:50 8,8 C 6,4 C 9,7 C 9,9 C 9,1 C 1,1 C 57 % 55 % 1011,1 hPa 0,0 l/m 13,8 km/h (3 Bft) S-SW 202 0 min 0,8 C 7,0 C 28,0 km/h (4 Bft)
12.03.2021 13:55 8,9 C 6,4 C 9,6 C 9,6 C 8,9 C 0,7 C 57 % 56 % 1011,1 hPa 0,0 l/m 13,5 km/h (3 Bft) SW 225 0 min 0,9 C 6,8 C 10,8 km/h (2 Bft)
12.03.2021 14:00 8,8 C 6,4 C 9,6 C 9,5 C 9,1 C 0,7 C 58 % 57 % 1011,1 hPa 0,0 l/m 10,6 km/h (2 Bft) S 180 0 min 1,0 C 7,5 C 13,5 km/h (3 Bft)
12.03.2021 14:05 8,8 C 6,4 C 9,5 C 9,1 C 9,1 C 0,3 C 57 % 56 % 1011,1 hPa 0,0 l/m 11,1 km/h (2 Bft) S-SW 202 0 min 0,8 C 7,4 C 23,8 km/h (4 Bft)
12.03.2021 14:10 8,8 C 6,4 C 9,4 C 9,4 C 8,8 C 0,6 C 58 % 57 % 1011,1 hPa 0,0 l/m 12,1 km/h (2 Bft) SW 225 0 min 1,0 C 6,8 C 28,6 km/h (4 Bft)
12.03.2021 14:15 8,8 C 6,4 C 9,5 C 9,5 C 9,2 C 0,7 C 58 % 56 % 1011,1 hPa 0,0 l/m 10,9 km/h (2 Bft) S 180 0 min 1,0 C 7,5 C 13,7 km/h (3 Bft)
12.03.2021 14:20 8,8 C 6,5 C 9,3 C 9,7 C 9,1 C 0,9 C 56 % 55 % 1011,1 hPa 0,0 l/m 12,1 km/h (2 Bft) SW 225 0 min 0,5 C 7,2 C 20,4 km/h (4 Bft)
12.03.2021 14:25 8,9 C 6,4 C 9,1 C 9,3 C 8,4 C 0,4 C 56 % 55 % 1011,1 hPa 0,0 l/m 14,3 km/h (3 Bft) SW 225 0 min 0,6 C 6,0 C 19,6 km/h (3 Bft)
12.03.2021 14:30 8,7 C 6,4 C 8,9 C 8,8 C 8,0 C 0,1 C 56 % 55 % 1011,4 hPa 0,0 l/m 14,2 km/h (3 Bft) S 180 0 min 0,4 C 5,6 C 14,0 km/h (3 Bft)
12.03.2021 14:35 8,7 C 6,4 C 9,0 C 8,7 C 7,9 C 0,0 C 56 % 56 % 1011,4 hPa 0,0 l/m 13,8 km/h (3 Bft) SW 225 0 min 0,4 C 5,5 C 19,3 km/h (3 Bft)
12.03.2021 14:40 8,8 C 6,5 C 9,0 C 8,8 C 8,1 C 0,0 C 56 % 56 % 1011,4 hPa 0,0 l/m 13,2 km/h (3 Bft) S 180 0 min 0,5 C 5,8 C 17,1 km/h (3 Bft)
12.03.2021 14:45 8,8 C 6,5 C 9,1 C 8,8 C 8,2 C 0,0 C 56 % 55 % 1011,4 hPa 0,0 l/m 12,6 km/h (3 Bft) S-SO 157 0 min 0,5 C 6,0 C 6,3 km/h (2 Bft)
12.03.2021 14:50 8,9 C 6,5 C 9,2 C 9,1 C 8,8 C 0,2 C 56 % 56 % 1010,7 hPa 0,0 l/m 10,6 km/h (2 Bft) S 180 0 min 0,6 C 7,1 C 21,9 km/h (4 Bft)
12.03.2021 14:55 8,9 C 6,5 C 9,3 C 8,9 C 8,8 C 0,0 C 55 % 55 % 1010,7 hPa 0,0 l/m 10,3 km/h (2 Bft) SW 225 0 min 0,4 C 7,1 C 10,8 km/h (2 Bft)
12.03.2021 15:00 8,9 C 6,5 C 9,2 C 9,2 C 8,7 C 0,3 C 55 % 55 % 1010,7 hPa 0,0 l/m 11,3 km/h (2 Bft) SW 225 0 min 0,4 C 6,9 C 17,4 km/h (3 Bft)
12.03.2021 15:05 8,9 C 6,5 C 9,2 C 8,8 C 8,7 C 0,0 C 54 % 54 % 1010,7 hPa 0,0 l/m 11,9 km/h (2 Bft) S 180 0 min 0,1 C 6,8 C 14,3 km/h (3 Bft)
12.03.2021 15:10 8,9 C 6,5 C 9,3 C 8,8 C 8,7 C 0,0 C 54 % 53 % 1010,8 hPa 0,0 l/m 11,9 km/h (2 Bft) S-SO 157 0 min 0,1 C 6,8 C 11,6 km/h (2 Bft)
12.03.2021 15:15 8,9 C 6,5 C 9,1 C 9,1 C 8,5 C 0,2 C 53 % 53 % 1010,8 hPa 0,0 l/m 11,4 km/h (2 Bft) S-SW 202 0 min -0,1 C 6,6 C 11,3 km/h (2 Bft)
12.03.2021 15:20 8,8 C 6,5 C 9,1 C 9,0 C 8,4 C 0,2 C 53 % 54 % 1010,8 hPa 0,0 l/m 11,1 km/h (2 Bft) W 270 0 min -0,2 C 6,5 C 13,5 km/h (3 Bft)
12.03.2021 15:25 8,9 C 6,5 C 9,1 C 9,1 C 8,8 C 0,2 C 54 % 55 % 1010,8 hPa 0,0 l/m 9,0 km/h (2 Bft) W-SW 247 0 min 0,1 C 7,4 C 3,7 km/h (1 Bft)
12.03.2021 15:30 8,9 C 6,5 C 9,1 C 9,6 C 9,6 C 0,7 C 55 % 55 % 1010,8 hPa 0,0 l/m 5,6 km/h (1 Bft) W-NW 292 0 min 0,4 C 9,1 C 4,8 km/h (1 Bft)
12.03.2021 15:35 8,9 C 6,5 C 9,1 C 9,9 C 9,9 C 1,0 C 55 % 55 % 1010,8 hPa 0,0 l/m 3,9 km/h (1 Bft) SW 225 0 min 0,4 C 9,9 C 7,9 km/h (2 Bft)
12.03.2021 15:40 9,1 C 6,5 C 9,1 C 10,2 C 10,2 C 1,1 C 56 % 57 % 1010,8 hPa 0,0 l/m 4,3 km/h (1 Bft) SW 225 0 min 0,8 C 10,2 C 9,7 km/h (2 Bft)
12.03.2021 15:45 9,2 C 6,5 C 9,3 C 10,8 C 10,8 C 1,6 C 56 % 55 % 1010,8 hPa 0,0 l/m 5,1 km/h (1 Bft) SW 225 0 min 0,9 C 10,8 C 10,8 km/h (2 Bft)
12.03.2021 15:50 9,2 C 6,5 C 9,1 C 10,4 C 9,7 C 1,2 C 55 % 55 % 1010,8 hPa 0,0 l/m 8,4 km/h (2 Bft) W-SW 247 0 min 0,6 C 8,6 C 19,2 km/h (3 Bft)
12.03.2021 15:55 9,0 C 6,5 C 9,1 C 9,6 C 8,9 C 0,6 C 55 % 56 % 1010,8 hPa 0,0 l/m 10,3 km/h (2 Bft) W-SW 247 0 min 0,5 C 7,3 C 10,8 km/h (2 Bft)
12.03.2021 16:00 9,1 C 6,5 C 9,1 C 9,0 C 8,9 C 0,0 C 55 % 56 % 1010,8 hPa 0,0 l/m 9,3 km/h (2 Bft) SW 225 0 min 0,5 C 7,4 C 9,0 km/h (2 Bft)
12.03.2021 16:05 9,1 C 6,5 C 9,0 C 9,2 C 8,7 C 0,1 C 55 % 56 % 1010,8 hPa 0,0 l/m 9,5 km/h (2 Bft) S 180 0 min 0,5 C 7,2 C 12,7 km/h (3 Bft)
12.03.2021 16:10 9,3 C 6,5 C 9,4 C 9,8 C 9,8 C 0,5 C 56 % 56 % 1010,4 hPa 0,0 l/m 9,3 km/h (2 Bft) SW 225 0 min 1,0 C 8,5 C 11,7 km/h (2 Bft)
12.03.2021 16:15 9,5 C 6,6 C 9,1 C 10,2 C 10,2 C 0,7 C 55 % 56 % 1010,4 hPa 0,0 l/m 7,2 km/h (2 Bft) NW 315 0 min 0,9 C 10,2 C 2,6 km/h (1 Bft)
12.03.2021 16:20 9,3 C 6,6 C 8,9 C 9,7 C 9,7 C 0,4 C 55 % 57 % 1010,4 hPa 0,0 l/m 6,6 km/h (2 Bft) S-SW 202 0 min 0,7 C 9,0 C 16,7 km/h (3 Bft)
12.03.2021 16:25 9,3 C 6,6 C 8,9 C 9,9 C 9,9 C 0,6 C 55 % 56 % 1010,4 hPa 0,0 l/m 6,3 km/h (2 Bft) S-SO 157 0 min 0,7 C 9,3 C 6,3 km/h (2 Bft)
12.03.2021 16:30 9,2 C 6,6 C 8,8 C 9,7 C 9,7 C 0,5 C 55 % 56 % 1010,1 hPa 0,0 l/m 5,5 km/h (1 Bft) S 180 0 min 0,6 C 9,3 C 11,6 km/h (2 Bft)
12.03.2021 16:35 9,2 C 6,6 C 8,9 C 9,4 C 9,4 C 0,2 C 55 % 57 % 1010,1 hPa 0,0 l/m 6,0 km/h (2 Bft) SW 225 0 min 0,6 C 8,8 C 10,5 km/h (2 Bft)
12.03.2021 16:40 9,2 C 6,6 C 8,9 C 9,3 C 9,3 C 0,1 C 55 % 57 % 1010,1 hPa 0,0 l/m 6,1 km/h (2 Bft) SW 225 0 min 0,6 C 8,6 C 7,9 km/h (2 Bft)
12.03.2021 16:45 9,2 C 6,6 C 8,8 C 9,9 C 9,9 C 0,7 C 56 % 58 % 1010,1 hPa 0,0 l/m 3,7 km/h (1 Bft) W 270 0 min 0,9 C 9,9 C 1,9 km/h (1 Bft)
12.03.2021 16:50 9,2 C 6,6 C 8,8 C 9,8 C 9,8 C 0,6 C 56 % 57 % 1010,2 hPa 0,0 l/m 2,6 km/h (1 Bft) SW 225 0 min 0,9 C 9,8 C 2,6 km/h (1 Bft)
12.03.2021 16:55 9,2 C 6,6 C 9,1 C 10,1 C 10,1 C 0,9 C 56 % 57 % 1010,2 hPa 0,0 l/m 3,1 km/h (1 Bft) SW 225 0 min 0,9 C 10,1 C 3,9 km/h (1 Bft)
12.03.2021 17:00 9,3 C 6,6 C 8,9 C 10,3 C 10,3 C 1,0 C 56 % 57 % 1010,2 hPa 0,0 l/m 2,9 km/h (1 Bft) S 180 0 min 1,0 C 10,3 C 7,2 km/h (2 Bft)
12.03.2021 17:05 9,2 C 6,6 C 8,7 C 10,1 C 10,1 C 0,9 C 55 % 56 % 1010,2 hPa 0,0 l/m 3,1 km/h (1 Bft) N-NW 337 0 min 0,6 C 10,1 C 7,1 km/h (2 Bft)
12.03.2021 17:10 9,3 C 6,6 C 8,7 C 10,4 C 10,4 C 1,1 C 55 % 57 % 1009,6 hPa 0,0 l/m 3,7 km/h (1 Bft) N-NO 22 0 min 0,7 C 10,4 C 8,7 km/h (2 Bft)
12.03.2021 17:15 9,5 C 6,6 C 8,8 C 10,6 C 10,6 C 1,1 C 54 % 56 % 1009,6 hPa 0,0 l/m 4,3 km/h (1 Bft) SO 135 0 min 0,7 C 10,6 C 6,0 km/h (2 Bft)
12.03.2021 17:20 9,2 C 6,6 C 8,6 C 9,9 C 9,9 C 0,7 C 53 % 55 % 1009,6 hPa 0,0 l/m 5,0 km/h (1 Bft) O-SO 112 0 min 0,1 C 9,6 C 3,9 km/h (1 Bft)
12.03.2021 17:25 9,1 C 6,6 C 8,4 C 9,4 C 9,4 C 0,3 C 53 % 55 % 1009,6 hPa 0,0 l/m 4,2 km/h (1 Bft) W 270 0 min 0,0 C 9,4 C 6,4 km/h (2 Bft)
12.03.2021 17:30 8,9 C 6,6 C 8,2 C 9,1 C 9,1 C 0,2 C 54 % 56 % 1009,6 hPa 0,0 l/m 2,4 km/h (1 Bft) SW 225 0 min 0,1 C 9,1 C 2,4 km/h (1 Bft)
12.03.2021 17:35 8,9 C 6,6 C 8,2 C 9,2 C 9,2 C 0,3 C 54 % 57 % 1009,6 hPa 0,0 l/m 2,4 km/h (1 Bft) W 270 0 min 0,1 C 9,2 C 6,1 km/h (2 Bft)
12.03.2021 17:40 8,8 C 6,6 C 8,0 C 9,1 C 9,1 C 0,3 C 54 % 57 % 1009,6 hPa 0,0 l/m 2,4 km/h (1 Bft) O 90 0 min 0,0 C 9,1 C 7,9 km/h (2 Bft)
12.03.2021 17:45 8,7 C 6,6 C 7,9 C 8,7 C 8,7 C 0,0 C 54 % 56 % 1009,6 hPa 0,0 l/m 2,3 km/h (1 Bft) SO 135 0 min -0,1 C 8,7 C 0,0 km/h (0 Bft)
12.03.2021 17:50 8,6 C 6,6 C 7,6 C 8,5 C 8,3 C 0,0 C 54 % 57 % 1009,5 hPa 0,0 l/m 2,9 km/h (1 Bft) S-SW 202 0 min -0,2 C 8,3 C 7,9 km/h (2 Bft)
12.03.2021 17:55 8,4 C 6,6 C 7,5 C 8,3 C 8,0 C 0,0 C 55 % 58 % 1009,5 hPa 0,0 l/m 2,9 km/h (1 Bft) SW 225 0 min -0,1 C 8,0 C 3,2 km/h (1 Bft)
12.03.2021 18:00 8,3 C 6,6 C 7,3 C 8,1 C 7,7 C 0,0 C 55 % 58 % 1009,5 hPa 0,0 l/m 1,9 km/h (1 Bft) W-NW 292 0 min -0,2 C 7,7 C 0,0 km/h (0 Bft)
12.03.2021 18:05 8,3 C 6,6 C 7,2 C 8,0 C 7,4 C 0,0 C 55 % 59 % 1009,5 hPa 0,0 l/m 1,1 km/h (1 Bft) W-SW 247 0 min -0,2 C 7,4 C 5,0 km/h (1 Bft)
12.03.2021 18:10 8,0 C 6,6 C 7,1 C 7,8 C 7,3 C 0,0 C 56 % 59 % 1009,4 hPa 0,0 l/m 0,8 km/h (0 Bft) S-SW 202 0 min -0,2 C 7,3 C 4,2 km/h (1 Bft)
12.03.2021 18:15 8,1 C 6,6 C 7,0 C 7,8 C 7,1 C 0,0 C 56 % 59 % 1009,4 hPa 0,0 l/m 1,3 km/h (1 Bft) O-SO 112 0 min -0,1 C 7,1 C 4,0 km/h (1 Bft)
12.03.2021 18:20 7,9 C 6,6 C 7,1 C 7,6 C 7,1 C 0,0 C 56 % 59 % 1009,4 hPa 0,0 l/m 1,4 km/h (1 Bft) O-SO 112 0 min -0,3 C 7,1 C 2,3 km/h (1 Bft)
12.03.2021 18:25 7,9 C 6,6 C 7,0 C 7,6 C 7,1 C 0,0 C 56 % 60 % 1009,4 hPa 0,0 l/m 1,3 km/h (1 Bft) SO 135 0 min -0,3 C 7,1 C 3,5 km/h (1 Bft)
12.03.2021 18:30 7,8 C 6,6 C 6,8 C 7,5 C 7,0 C 0,0 C 56 % 60 % 1009,4 hPa 0,0 l/m 1,3 km/h (1 Bft) SO 135 0 min -0,4 C 7,0 C 0,0 km/h (0 Bft)
12.03.2021 18:35 7,8 C 6,6 C 6,8 C 7,5 C 6,9 C 0,0 C 56 % 60 % 1009,4 hPa 0,0 l/m 1,1 km/h (1 Bft) O-SO 112 0 min -0,4 C 6,9 C 2,4 km/h (1 Bft)
12.03.2021 18:40 7,8 C 6,6 C 6,8 C 7,5 C 6,8 C 0,0 C 57 % 61 % 1009,4 hPa 0,0 l/m 1,4 km/h (1 Bft) W-SW 247 0 min -0,2 C 6,8 C 1,6 km/h (1 Bft)
12.03.2021 18:45 7,7 C 6,6 C 6,7 C 7,4 C 6,8 C 0,0 C 57 % 61 % 1009,4 hPa 0,0 l/m 1,8 km/h (1 Bft) SO 135 0 min -0,3 C 6,8 C 8,7 km/h (2 Bft)
12.03.2021 18:50 7,6 C 6,6 C 6,7 C 7,3 C 6,7 C 0,0 C 57 % 61 % 1009,5 hPa 0,0 l/m 1,8 km/h (1 Bft) S 180 0 min -0,4 C 6,7 C 6,1 km/h (2 Bft)
12.03.2021 18:55 7,7 C 6,6 C 6,6 C 7,4 C 6,7 C 0,0 C 58 % 61 % 1009,5 hPa 0,0 l/m 1,6 km/h (1 Bft) SW 225 0 min -0,0 C 6,7 C 0,0 km/h (0 Bft)
12.03.2021 19:00 7,6 C 6,6 C 6,6 C 7,3 C 6,7 C 0,0 C 58 % 62 % 1009,5 hPa 0,0 l/m 2,1 km/h (1 Bft) O-NO 67 0 min -0,1 C 6,7 C 4,5 km/h (1 Bft)
12.03.2021 19:05 7,7 C 6,6 C 6,6 C 7,4 C 6,7 C 0,0 C 58 % 62 % 1009,5 hPa 0,0 l/m 2,1 km/h (1 Bft) SO 135 0 min -0,0 C 6,7 C 4,3 km/h (1 Bft)
12.03.2021 19:10 7,6 C 6,6 C 6,5 C 7,3 C 6,7 C 0,0 C 59 % 63 % 1009,4 hPa 0,0 l/m 2,1 km/h (1 Bft) O-SO 112 0 min 0,1 C 6,7 C 0,0 km/h (0 Bft)
12.03.2021 19:15 7,5 C 6,6 C 6,5 C 7,2 C 6,6 C 0,0 C 59 % 64 % 1009,4 hPa 0,0 l/m 2,1 km/h (1 Bft) N-NO 22 0 min 0,0 C 6,6 C 3,1 km/h (1 Bft)
12.03.2021 19:20 7,4 C 6,6 C 6,4 C 7,1 C 6,6 C 0,0 C 60 % 64 % 1009,4 hPa 0,0 l/m 1,4 km/h (1 Bft) NO 45 0 min 0,2 C 6,6 C 4,5 km/h (1 Bft)
12.03.2021 19:25 7,5 C 6,6 C 6,4 C 7,2 C 6,6 C 0,0 C 60 % 64 % 1009,4 hPa 0,0 l/m 2,4 km/h (1 Bft) O 90 0 min 0,2 C 6,6 C 4,5 km/h (1 Bft)
12.03.2021 19:30 7,4 C 6,6 C 6,4 C 7,1 C 6,5 C 0,0 C 61 % 65 % 1009,5 hPa 0,0 l/m 3,5 km/h (1 Bft) O-SO 112 0 min 0,4 C 6,5 C 5,6 km/h (1 Bft)
12.03.2021 19:35 7,3 C 6,6 C 6,4 C 7,1 C 6,6 C 0,0 C 61 % 65 % 1009,5 hPa 0,0 l/m 3,4 km/h (1 Bft) S-SO 157 0 min 0,3 C 6,6 C 0,0 km/h (0 Bft)
12.03.2021 19:40 7,3 C 6,6 C 6,3 C 7,0 C 6,5 C 0,0 C 61 % 66 % 1009,5 hPa 0,0 l/m 2,7 km/h (1 Bft) O-NO 67 0 min 0,3 C 6,5 C 0,0 km/h (0 Bft)
12.03.2021 19:45 7,3 C 6,6 C 6,2 C 7,0 C 6,4 C 0,0 C 62 % 66 % 1009,5 hPa 0,0 l/m 2,3 km/h (1 Bft) W-SW 247 0 min 0,5 C 6,4 C 2,9 km/h (1 Bft)
12.03.2021 19:50 7,2 C 6,6 C 6,3 C 6,9 C 6,4 C 0,0 C 62 % 66 % 1009,2 hPa 0,0 l/m 3,1 km/h (1 Bft) NW 315 0 min 0,4 C 6,4 C 4,5 km/h (1 Bft)
12.03.2021 19:55 7,1 C 6,6 C 6,2 C 6,9 C 6,4 C 0,0 C 63 % 67 % 1009,2 hPa 0,0 l/m 3,2 km/h (1 Bft) W-SW 247 0 min 0,5 C 6,4 C 1,9 km/h (1 Bft)
12.03.2021 20:00 7,1 C 6,6 C 6,1 C 6,8 C 6,3 C 0,0 C 63 % 67 % 1009,2 hPa 0,0 l/m 2,3 km/h (1 Bft) O-NO 67 0 min 0,5 C 6,3 C 0,0 km/h (0 Bft)
12.03.2021 20:05 7,1 C 6,6 C 6,1 C 6,8 C 6,3 C 0,0 C 63 % 67 % 1009,2 hPa 0,0 l/m 2,4 km/h (1 Bft) SO 135 0 min 0,5 C 6,3 C 3,9 km/h (1 Bft)
12.03.2021 20:10 7,0 C 6,6 C 6,1 C 6,8 C 6,3 C 0,0 C 63 % 67 % 1009,2 hPa 0,0 l/m 2,4 km/h (1 Bft) S-SO 157 0 min 0,4 C 6,3 C 5,3 km/h (1 Bft)
12.03.2021 20:15 6,9 C 6,7 C 6,1 C 6,7 C 6,3 C 0,0 C 64 % 67 % 1009,2 hPa 0,0 l/m 3,2 km/h (1 Bft) SO 135 0 min 0,6 C 6,3 C 4,0 km/h (1 Bft)
12.03.2021 20:20 6,9 C 6,7 C 5,9 C 6,5 C 5,8 C 0,0 C 64 % 68 % 1009,2 hPa 0,0 l/m 4,2 km/h (1 Bft) S 180 0 min 0,6 C 5,8 C 3,7 km/h (1 Bft)
12.03.2021 20:25 6,8 C 6,7 C 5,9 C 6,4 C 5,7 C 0,0 C 64 % 68 % 1009,2 hPa 0,0 l/m 4,5 km/h (1 Bft) W-SW 247 0 min 0,5 C 5,7 C 8,9 km/h (2 Bft)
12.03.2021 20:30 6,8 C 6,7 C 5,9 C 6,5 C 5,8 C 0,0 C 64 % 68 % 1009,3 hPa 0,0 l/m 4,2 km/h (1 Bft) O-SO 112 0 min 0,5 C 5,8 C 1,6 km/h (1 Bft)
12.03.2021 20:35 6,8 C 6,7 C 5,8 C 6,6 C 6,1 C 0,0 C 64 % 69 % 1009,3 hPa 0,0 l/m 3,4 km/h (1 Bft) O-SO 112 0 min 0,5 C 6,1 C 5,6 km/h (1 Bft)
12.03.2021 20:40 6,8 C 6,7 C 5,7 C 6,4 C 5,5 C 0,0 C 65 % 69 % 1009,3 hPa 0,0 l/m 4,5 km/h (1 Bft) S 180 0 min 0,7 C 5,5 C 11,9 km/h (2 Bft)
12.03.2021 20:45 6,7 C 6,7 C 5,7 C 6,1 C 4,8 C 0,0 C 65 % 70 % 1009,3 hPa 0,0 l/m 6,4 km/h (2 Bft) S 180 0 min 0,6 C 3,4 C 13,0 km/h (3 Bft)
12.03.2021 20:50 6,7 C 6,7 C 5,8 C 6,1 C 4,9 C 0,0 C 65 % 69 % 1008,9 hPa 0,0 l/m 6,8 km/h (2 Bft) S-SW 202 0 min 0,6 C 3,4 C 13,5 km/h (3 Bft)
12.03.2021 20:55 6,7 C 6,7 C 5,7 C 6,1 C 4,8 C 0,0 C 65 % 69 % 1008,9 hPa 0,0 l/m 6,9 km/h (2 Bft) S-SO 157 0 min 0,6 C 3,2 C 5,8 km/h (2 Bft)
12.03.2021 21:00 6,7 C 6,7 C 5,7 C 6,1 C 4,8 C 0,0 C 65 % 69 % 1008,9 hPa 0,0 l/m 6,9 km/h (2 Bft) S 180 0 min 0,6 C 3,2 C 19,3 km/h (3 Bft)
12.03.2021 21:05 6,7 C 6,7 C 5,7 C 6,1 C 4,9 C 0,0 C 65 % 69 % 1008,9 hPa 0,0 l/m 6,8 km/h (2 Bft) NO 45 0 min 0,6 C 3,4 C 0,0 km/h (0 Bft)
12.03.2021 21:10 6,7 C 6,7 C 5,7 C 6,0 C 4,7 C 0,0 C 65 % 69 % 1008,4 hPa 0,0 l/m 7,2 km/h (2 Bft) S 180 0 min 0,6 C 3,0 C 10,8 km/h (2 Bft)
12.03.2021 21:15 6,7 C 6,7 C 5,7 C 6,1 C 5,0 C 0,0 C 64 % 69 % 1008,4 hPa 0,0 l/m 6,3 km/h (2 Bft) S 180 0 min 0,4 C 3,6 C 14,6 km/h (3 Bft)
12.03.2021 21:20 6,8 C 6,7 C 5,6 C 6,2 C 5,1 C 0,0 C 64 % 69 % 1008,4 hPa 0,0 l/m 6,1 km/h (2 Bft) S-SO 157 0 min 0,5 C 3,8 C 10,6 km/h (2 Bft)
12.03.2021 21:25 6,7 C 6,7 C 5,7 C 6,2 C 5,1 C 0,0 C 64 % 69 % 1008,4 hPa 0,0 l/m 6,0 km/h (2 Bft) S-SW 202 0 min 0,4 C 3,8 C 9,7 km/h (2 Bft)
12.03.2021 21:30 6,9 C 6,7 C 5,8 C 6,4 C 5,4 C 0,0 C 64 % 68 % 1007,7 hPa 0,0 l/m 5,1 km/h (1 Bft) W-SW 247 0 min 0,6 C 4,5 C 6,4 km/h (2 Bft)
12.03.2021 21:35 6,8 C 6,7 C 5,8 C 6,4 C 5,5 C 0,0 C 64 % 68 % 1007,7 hPa 0,0 l/m 5,0 km/h (1 Bft) W-SW 247 0 min 0,5 C 4,7 C 5,3 km/h (1 Bft)
12.03.2021 21:40 6,8 C 6,7 C 5,9 C 6,3 C 5,4 C 0,0 C 64 % 68 % 1007,7 hPa 0,0 l/m 5,3 km/h (1 Bft) S-SO 157 0 min 0,5 C 4,4 C 12,6 km/h (3 Bft)
12.03.2021 21:45 6,9 C 6,7 C 5,9 C 6,3 C 5,2 C 0,0 C 64 % 67 % 1007,7 hPa 0,0 l/m 6,3 km/h (2 Bft) SO 135 0 min 0,6 C 3,9 C 6,9 km/h (2 Bft)
12.03.2021 21:50 7,1 C 6,7 C 6,0 C 6,5 C 5,4 C 0,0 C 63 % 67 % 1008,1 hPa 0,0 l/m 6,6 km/h (2 Bft) S-SO 157 0 min 0,5 C 4,0 C 8,0 km/h (2 Bft)
12.03.2021 21:55 7,1 C 6,6 C 6,0 C 6,5 C 5,4 C 0,0 C 63 % 67 % 1008,1 hPa 0,0 l/m 6,6 km/h (2 Bft) S-SO 157 0 min 0,5 C 4,0 C 19,2 km/h (3 Bft)
12.03.2021 22:00 7,2 C 6,6 C 6,0 C 6,6 C 5,3 C 0,0 C 63 % 67 % 1008,1 hPa 0,0 l/m 7,2 km/h (2 Bft) S-SW 202 0 min 0,6 C 3,7 C 7,6 km/h (2 Bft)
12.03.2021 22:05 7,1 C 6,6 C 6,0 C 6,5 C 5,4 C 0,0 C 62 % 67 % 1008,1 hPa 0,0 l/m 6,9 km/h (2 Bft) S-SO 157 0 min 0,3 C 3,9 C 8,4 km/h (2 Bft)
12.03.2021 22:10 7,2 C 6,6 C 6,1 C 6,8 C 6,1 C 0,0 C 62 % 66 % 1007,5 hPa 0,0 l/m 4,8 km/h (1 Bft) SW 225 0 min 0,4 C 5,4 C 4,7 km/h (1 Bft)
12.03.2021 22:15 7,2 C 6,6 C 6,2 C 6,9 C 6,2 C 0,0 C 62 % 66 % 1007,5 hPa 0,0 l/m 4,7 km/h (1 Bft) SO 135 0 min 0,4 C 5,6 C 4,8 km/h (1 Bft)
12.03.2021 22:20 7,2 C 6,6 C 6,3 C 6,8 C 6,0 C 0,0 C 62 % 66 % 1007,5 hPa 0,0 l/m 5,1 km/h (1 Bft) SW 225 0 min 0,4 C 5,2 C 17,9 km/h (3 Bft)
12.03.2021 22:25 7,3 C 6,6 C 6,3 C 6,8 C 5,8 C 0,0 C 62 % 66 % 1007,5 hPa 0,0 l/m 6,1 km/h (2 Bft) NO 45 0 min 0,5 C 4,6 C 16,7 km/h (3 Bft)
12.03.2021 22:30 7,3 C 6,6 C 6,4 C 6,8 C 5,7 C 0,0 C 62 % 65 % 1007,6 hPa 0,0 l/m 6,9 km/h (2 Bft) W-SW 247 0 min 0,5 C 4,3 C 10,0 km/h (2 Bft)
12.03.2021 22:35 7,4 C 6,6 C 6,5 C 7,0 C 6,2 C 0,0 C 62 % 65 % 1007,6 hPa 0,0 l/m 5,8 km/h (2 Bft) NW 315 0 min 0,6 C 5,2 C 7,7 km/h (2 Bft)
12.03.2021 22:40 7,4 C 6,6 C 6,5 C 7,1 C 6,5 C 0,0 C 62 % 65 % 1007,6 hPa 0,0 l/m 4,8 km/h (1 Bft) SW 225 0 min 0,6 C 5,9 C 8,0 km/h (2 Bft)
12.03.2021 22:45 7,5 C 6,6 C 6,5 C 7,3 C 6,8 C 0,0 C 62 % 65 % 1007,6 hPa 0,0 l/m 4,0 km/h (1 Bft) O-NO 67 0 min 0,7 C 6,8 C 4,0 km/h (1 Bft)
12.03.2021 22:50 7,5 C 6,6 C 6,6 C 7,1 C 6,4 C 0,0 C 62 % 65 % 1007,8 hPa 0,0 l/m 5,0 km/h (1 Bft) S 180 0 min 0,7 C 5,7 C 11,9 km/h (2 Bft)
12.03.2021 22:55 7,5 C 6,6 C 6,6 C 7,2 C 6,5 C 0,0 C 62 % 65 % 1007,8 hPa 0,0 l/m 4,8 km/h (1 Bft) SO 135 0 min 0,7 C 5,9 C 6,6 km/h (2 Bft)
12.03.2021 23:00 7,5 C 6,6 C 6,6 C 7,2 C 6,7 C 0,0 C 62 % 65 % 1007,8 hPa 0,0 l/m 4,5 km/h (1 Bft) S-SO 157 0 min 0,7 C 6,7 C 2,6 km/h (1 Bft)
12.03.2021 23:05 7,5 C 6,6 C 6,6 C 7,2 C 6,7 C 0,0 C 61 % 65 % 1007,8 hPa 0,0 l/m 4,3 km/h (1 Bft) S 180 0 min 0,5 C 6,7 C 10,3 km/h (2 Bft)
12.03.2021 23:10 7,5 C 6,6 C 6,6 C 7,2 C 6,7 C 0,0 C 62 % 65 % 1007,4 hPa 0,0 l/m 4,3 km/h (1 Bft) SW 225 0 min 0,7 C 6,7 C 1,6 km/h (1 Bft)
12.03.2021 23:15 7,5 C 6,6 C 6,7 C 7,3 C 6,8 C 0,0 C 62 % 65 % 1007,4 hPa 0,0 l/m 4,0 km/h (1 Bft) O 90 0 min 0,7 C 6,8 C 4,8 km/h (1 Bft)
12.03.2021 23:20 7,6 C 6,6 C 6,7 C 7,4 C 6,9 C 0,0 C 62 % 65 % 1007,4 hPa 0,0 l/m 4,2 km/h (1 Bft) O-SO 112 0 min 0,8 C 6,9 C 11,4 km/h (2 Bft)
12.03.2021 23:25 7,5 C 6,6 C 6,7 C 7,4 C 7,3 C 0,0 C 62 % 65 % 1007,4 hPa 0,0 l/m 3,5 km/h (1 Bft) W-NW 292 0 min 0,7 C 7,3 C 1,9 km/h (1 Bft)
12.03.2021 23:30 7,6 C 6,6 C 6,9 C 7,5 C 7,2 C 0,0 C 62 % 64 % 1007,3 hPa 0,0 l/m 4,0 km/h (1 Bft) N-NO 22 0 min 0,8 C 7,2 C 3,7 km/h (1 Bft)
12.03.2021 23:35 7,7 C 6,6 C 7,0 C 7,5 C 7,2 C 0,0 C 62 % 65 % 1007,3 hPa 0,0 l/m 4,7 km/h (1 Bft) NO 45 0 min 0,9 C 6,7 C 7,9 km/h (2 Bft)
12.03.2021 23:40 7,6 C 6,6 C 7,0 C 7,4 C 7,1 C 0,0 C 62 % 64 % 1007,3 hPa 0,0 l/m 5,3 km/h (1 Bft) S-SO 157 0 min 0,8 C 6,4 C 7,9 km/h (2 Bft)
12.03.2021 23:45 7,6 C 6,6 C 7,0 C 7,5 C 7,2 C 0,0 C 62 % 65 % 1007,3 hPa 0,0 l/m 5,0 km/h (1 Bft) W-NW 292 0 min 0,8 C 6,6 C 5,1 km/h (1 Bft)
12.03.2021 23:50 7,6 C 6,6 C 7,0 C 7,4 C 7,1 C 0,0 C 62 % 65 % 1007,3 hPa 0,0 l/m 5,3 km/h (1 Bft) SW 225 0 min 0,8 C 6,4 C 12,7 km/h (3 Bft)
12.03.2021 23:55 7,7 C 6,6 C 6,9 C 7,3 C 6,6 C 0,0 C 62 % 65 % 1007,3 hPa 0,0 l/m 6,9 km/h (2 Bft) S 180 0 min 0,9 C 5,3 C 13,4 km/h (3 Bft)
_ Min-Zeit 06:15 09:00 06:15 06:10 06:05 00:00 15:15 15:10 00:00 - 03:20 - - - 18:30 06:05 01:50
Minimum _ 5,5 C 6,3 C 4,8 C 4,7 C 2,8 C 0,0 C 53 % 53 % 1004,1 hPa - 0,5 km/h (0 Bft) - - - -0,4 C -0,4 C 0,0 km/h (0 Bft)
_ Max-Zeit 16:15 00:00 12:30 12:35 12:35 12:35 06:00 00:00 11:30 00:00 12:20 - - 12:35 00:00 12:35 14:10
Maximum _ 9,5 C 6,9 C 10,6 C 12,2 C 11,9 C 3,3 C 78 % 83 % 1012,1 hPa 0,0 l/m 15,4 km/h
S (3 Bft)
- - 5 min 4,0 C 11,9 C 28,6 km/h
SW (4 Bft)
Durchschnitt _ 7,3 C 6,6 C 7,0 C 7,3 C 6,6 C 0,2 C 66 % 69 % 1008,9 hPa #0,0 l/m 7,1 km/h (2 Bft) SW - #5 min. 1,3 C 5,4 C 10,0 km/h (2 Bft)
2021 www.wetterstation-wechselburg.de